Regional Weather Roundup
Issued by NWS

Home | Current Version | Previous Version | Graphics & Text | Print | Product List | Glossary On
Versions: 1 2 3 4 5 6 7 8 9 10 11 12 13 14 15 16 17 18 19 20 21 22 23 24 25 26 27 28 29 30 31 32 33 34 35 36 37 38 39 40 41 42 43 44 45 46 47 48 49 50
000
ASUS43 KLOT 240904
RWRIL

ILLINOIS REGIONAL WEATHER ROUNDUP
NATIONAL WEATHER SERVICE CHICAGO/ROMEOVILLE IL
400 AM CDT MON JUL 24 2017

NOTE: "FAIR" INDICATES FEW OR NO CLOUDS BELOW 12,000 FEET WITH NO
SIGNIFICANT WEATHER AND/OR OBSTRUCTIONS TO VISIBILITY.

* THESE STATIONS ARE NOT UNDER NWS QUALITY CONTROL. THEY ALSO MAY NOT
  REPORT WEATHER SUCH AS PRECIPITATION OR FOG.

ILZ001-002-007-009-015-016-024-241000-
NORTHWEST ILLINOIS

CITY           SKY/WX    TMP DP  RH WIND       PRES   REMARKS
MOLINE         CLEAR     68  61  78 VRB3      29.94R
STERLING*      MOCLDY    68  65  90 NE8       29.94R
SAVANNA*       MOCLDY    65  63  93 N3        29.95R
$$

ILZ003-004-008-010-011-017-018-241000-
NORTH CENTRAL ILLINOIS

CITY           SKY/WX    TMP DP  RH WIND       PRES   REMARKS
ROCKFORD       CLOUDY    69  63  81 NE7       29.96R
FREEPORT*      CLOUDY    66  64  94 NE6       29.97R
ROCHELLE*      MOCLDY    65  63  93 NE13      29.95R
DE KALB*       CLOUDY    65  63  93 NE8       29.96R
$$

ILZ005-006-012>014-019>023-241000-
NORTHEAST ILLINOIS

CITY           SKY/WX    TMP DP  RH WIND       PRES   REMARKS
CHICAGO-OHARE  CLOUDY    68  60  75 N9        29.93R
CHICAGO-MIDWAY CLOUDY    70  62  76 N12       29.92R
AURORA         CLOUDY    65  63  93 NE7       29.94R
LANSING*       CLOUDY    68  61  78 N9        29.92R
JOLIET*        MOCLDY    69  65  88 NE10      29.92S
WAUKEGAN       CLOUDY    65  62  90 N6        29.94R
DUPAGE AIRPORT CLOUDY    65  62  90 NE10      29.94R
WHEELING       MOCLDY    66  64  93 N3        29.95R
MORRIS*        CLOUDY    67  65  94 CALM      29.92R
NORTHERLY ISL    N/A     68  61  78 N8          N/A
$$

LMZ740>746-241000-
SOUTHERN LAKE MICHIGAN

STATION/POSITION SKY/WX   TEMP    WIND        PRES    VSBY  WAVE
                          AIR SEA DIR/SP/G                  HT/PER
                          (F)     (DEG/KT/KT) (MB)    (MI)  (FT/S)
SOUTHERN BUOY              67 70  360/ 17/ 19 1012.6          5/ 6
WILMETTE HARBOR            68 72  360/ 16/ 19   N/A           6/ 6
HARRISON CRIB              69      10/ 16/ 19   N/A
BURNHAM HARBOR             68                   N/A
CALUMET HARBOR             69     350/  9/ 15 1012.7S
BURNS HARBOR               70      10/ 14/ 18 1013.5R
MICHIGAN CITY              69     360/ 18/ 21   N/A
MICHIGAN CITY 6N           70 75   10/ 16/ 19   N/A           4/ 5
ST. JOSEPH                 70 74   30/ 14/ 17 1012.6R         5/ 5
$$

ILZ025>027-034>036-040-047-049-050-058-095>099-241000-
WEST-CENTRAL ILLINOIS

CITY           SKY/WX    TMP DP  RH WIND       PRES   REMARKS
QUINCY         CLEAR     68  62  81 N6        29.93S
GALESBURG*     CLEAR     62  61  98 CALM      29.94F
MACOMB*        CLEAR     64  62  93 NW6       29.95S
JACKSONVILLE*  CLEAR     65  63  92 CALM      29.91R
PITTSFIELD*    CLEAR     69  64  85 N7        29.93S
$$

ILZ028>032-037-038-041>044-048-051>054-059>061-241000-
CENTRAL ILLINOIS

CITY           SKY/WX    TMP DP  RH WIND       PRES   REMARKS
PONTIAC        CLEAR     66  65  99 CALM      29.92R FOG
BLOOMINGTON    CLEAR     68  65  90 N8        29.92S
DECATUR        CLEAR     69  65  86 N8        29.89S
PEORIA         CLEAR     67  65  93 N5        29.91S
LACON*         PTCLDY    66  65  94 N3        29.91R
LINCOLN*       CLEAR     68  66  94 NW3       29.90S
SPRINGFIELD    CLEAR     70  66  87 NW7       29.90S
TAYLORVILLE    NOT AVBL
$$

ILZ033-039-045-046-055>057-062-063-241000-
EAST-CENTRAL ILLINOIS

CITY           SKY/WX    TMP DP  RH WIND       PRES   REMARKS
CHAMPAIGN      CLEAR     68  65  90 NW6       29.89S
MATTOON        PTCLDY    70  69  97 NW7       29.87F
PARIS*         CLEAR     67  67  99 NW3       29.89R
$$

ILZ079-100>102-241000-
SOUTHWEST ILLINOIS

CITY           SKY/WX    TMP DP  RH WIND       PRES   REMARKS
ALTON          CLEAR     69  69  99 CALM      29.91S
BELLEVILLE     CLOUDY    72  70  91 CALM      29.90S
CAHOKIA*       CLOUDY    75  69  81 N5        29.89S
SPARTA*        PTCLDY    71  70  96 CALM      29.89F
$$

ILZ064>066-069>071-074>076-080>082-084>086-088>090-092>094-241000-
SOUTH-CENTRAL ILLINOIS

CITY           SKY/WX    TMP DP  RH WIND       PRES   REMARKS
CARBONDALE     MOCLDY    71  71 100 SW3       29.87F
CAIRO*         PTCLDY    74  71  88 W6        29.87S
EFFINGHAM*     CLOUDY    71  71 100 W3        29.89S
MARION         PTCLDY    75  73  94 SW3       29.88S
MT. VERNON     MOCLDY    70  70 100 CALM      29.88F
CENTRALIA*     CLOUDY    72  71  99 CALM      29.88S
SALEM*         CLOUDY    72  70  94 CALM      29.89R
METROPOLIS*    CLEAR     76  72  87 W3        29.88S
$$

ILZ067-068-072-073-078-083-087-091-241000-
SOUTHEAST ILLINOIS

CITY           SKY/WX    TMP DP  RH WIND       PRES   REMARKS
LAWRENCEVILLE  CLOUDY    72  70  93 SW3       29.88R
FLORA*         PTCLDY    72  70  93 CALM      29.89S
FAIRFIELD*     PTCLDY    71  71  97 CALM      29.87S
HARRISBURG*    PTCLDY    69  69  98 CALM      29.87F
ROBINSON*      CLOUDY    68  68 100 CALM      29.88R
CARMI*         PTCLDY    71  70  99 CALM      29.87S
$$

ABBREVIATIONS USED IN REMARKS
   TC - TEMPERATURE IN CELSIUS
  WCI - WIND CHILL INDEX
   HX - HEAT INDEX
  VSB - VISIBILITY
$$




USA.gov is the U.S. government's official web portal to all federal, state and local government web resources and services.